Theta_e
312 314 313 312 312 312 312 313 318 319 319 320 320 323 323 319 317 316 316 314 313 315 317 316 315 315 316 316 313 312 313 312 312 313 313 314 315 315 316 315 315 315 315 314 315 315 315 315 314 315 314 314 314 314 314 316 316 316 316 316 316 316 316 316 316 316 316 316 316 316 316 316 316 316 317 317 317 317 318 317 316 317 317 317 319 321
312 314 313 312 312 313 313 314 316 313 315 318 318 319 319 320 319 315 315 315 312 315 317 315 315 315 316 316 313 312 312 312 312 313 313 315 314 315 315 315 315 315 315 315 316 316 315 316 315 315 315 314 314 315 314 314 315 315 315 315 315 315 315 315 315 315 315 315 315 315 315 316 316 316 316 316 317 318 318 318 317 317 318 319 321 323
312 313 313 312 312 313 313 314 315 313 314 317 318 318 318 320 319 314 314 315 313 314 316 316 316 316 317 317 313 310 312 313 313 314 314 315 315 315 315 315 315 315 315 315 315 316 316 316 316 316 315 314 314 315 315 314 314 315 315 314 314 315 315 315 315 315 315 314 315 315 316 316 317 317 317 317 318 318 318 319 318 318 319 321 323 323
313 314 313 311 311 313 314 313 314 313 314 318 318 317 318 319 318 316 314 314 315 314 314 316 316 317 317 318 316 311 312 314 314 315 315 314 315 315 316 315 316 316 315 316 315 316 316 316 317 316 315 315 315 315 315 315 314 314 314 314 314 315 315 314 314 314 315 315 316 317 317 317 317 318 318 318 318 318 319 321 321 322 323 324 324 323
315 315 311 311 312 313 313 313 314 313 314 319 319 317 318 318 318 318 316 315 315 313 314 315 315 320 319 316 317 314 312 313 314 314 314 314 315 315 316 315 316 316 316 316 316 316 316 316 316 316 316 316 315 315 315 314 314 314 314 314 315 315 315 314 314 314 315 316 317 317 317 317 317 317 318 318 319 319 319 321 323 324 325 326 326 325
314 312 311 313 313 313 313 314 316 316 315 318 320 321 318 317 319 319 317 317 315 313 316 313 313 325 327 317 314 314 313 314 313 313 313 315 315 315 316 316 316 317 317 317 317 316 316 316 316 316 315 315 315 314 314 314 314 314 314 315 315 315 315 314 314 314 315 316 316 316 316 316 316 317 317 318 320 321 321 323 323 323 324 326 325 325
314 311 313 315 313 315 315 314 317 319 318 317 318 320 317 317 322 318 316 321 318 315 316 313 313 320 326 323 317 314 315 315 313 312 313 314 315 315 316 317 317 317 318 317 317 317 316 316 315 315 315 314 314 314 314 314 314 314 314 314 315 316 315 315 315 315 315 316 316 317 317 317 318 318 319 320 322 323 323 323 323 321 322 324 324 324
314 312 314 316 314 316 316 314 316 317 319 320 318 318 318 320 322 318 318 326 325 318 315 317 318 314 319 327 320 313 314 315 315 315 313 313 314 315 314 315 315 315 316 316 315 315 315 315 315 314 314 314 313 314 313 313 313 313 313 314 315 316 316 315 315 316 316 317 318 318 319 320 320 322 323 322 322 322 321 321 321 320 320 321 320 320
313 315 317 317 315 315 316 317 320 319 318 321 320 319 320 320 322 320 321 327 324 319 318 319 317 313 323 332 318 311 315 314 316 319 315 313 314 315 315 315 315 315 315 315 315 314 314 314 314 314 314 314 313 313 313 313 313 313 313 313 314 315 316 316 316 317 317 319 320 321 321 321 322 323 323 321 319 319 319 319 319 319 319 319 318 318
314 314 314 317 318 317 318 319 323 325 318 318 319 321 322 322 322 321 325 329 320 316 323 324 316 312 324 332 316 310 316 315 316 318 313 312 315 315 315 316 315 315 315 314 314 314 314 313 313 313 313 313 313 312 312 312 312 312 312 312 313 314 316 316 316 318 319 320 321 321 322 322 322 321 319 317 318 319 318 318 318 318 318 317 317 316
312 311 312 315 316 316 318 316 318 322 316 315 320 323 322 324 328 329 334 332 317 319 332 328 318 313 317 327 321 313 317 316 315 317 315 313 315 316 316 315 315 315 314 314 314 314 314 313 312 312 312 312 312 312 311 311 311 311 311 311 312 313 315 316 317 317 318 318 319 320 321 321 320 318 316 316 317 318 318 317 317 317 316 314 313 313
315 317 315 313 311 311 317 318 316 316 316 320 326 323 319 323 331 333 330 323 317 325 331 321 316 315 316 324 324 316 317 317 315 318 320 315 314 315 315 315 315 315 315 314 314 314 314 313 313 312 312 312 312 312 312 311 310 310 310 310 311 312 313 314 315 315 314 314 315 317 318 317 316 315 315 316 316 316 316 315 315 314 313 312 312 313
320 321 317 314 312 311 318 320 317 317 320 323 322 319 320 322 323 324 323 322 322 322 319 315 315 316 317 321 320 316 316 314 313 315 317 314 314 315 315 315 315 315 315 314 314 314 314 313 313 313 313 312 312 312 312 312 311 310 310 310 310 310 311 312 312 312 312 312 312 313 313 313 314 315 315 315 314 314 313 313 313 313 313 313 313 313
320 318 316 317 314 311 315 317 316 320 320 317 315 316 324 323 317 316 319 320 322 319 314 313 315 317 318 317 316 316 315 313 312 312 314 315 315 316 315 315 315 315 315 314 314 314 314 314 313 313 313 313 312 313 312 312 311 311 310 310 310 310 310 311 311 311 311 311 312 313 313 314 314 314 314 313 313 313 313 313 313 313 313 313 313 313
319 317 316 316 313 312 315 315 317 323 320 317 318 318 323 326 322 321 321 321 321 320 315 311 314 321 319 314 314 312 311 312 313 313 314 315 315 315 315 314 315 315 315 315 314 314 314 313 314 313 313 313 313 313 312 312 312 311 311 310 310 310 311 311 311 311 312 312 313 314 314 314 314 313 313 313 313 313 313 313 313 313 313 313 313 313
317 317 317 315 311 313 316 314 315 320 319 319 319 319 320 324 329 326 323 327 325 319 316 313 318 324 317 312 312 309 310 313 313 313 314 314 314 314 314 314 315 315 315 315 314 314 314 313 313 313 313 313 313 313 312 312 312 312 312 311 311 312 313 313 313 313 314 314 314 314 313 313 313 313 313 313 313 313 313 313 313 313 313 313 312 312
315 315 316 315 312 312 313 312 313 314 318 320 318 321 322 320 327 323 314 318 320 317 319 315 318 321 314 312 312 309 312 313 311 313 313 313 315 314 314 314 314 315 315 315 314 314 314 313 313 313 313 313 313 313 314 313 313 313 313 313 313 314 314 314 314 314 313 314 313 313 313 313 313 313 313 313 313 313 313 313 313 313 312 311 310 309
317 316 315 315 314 312 310 310 311 310 315 322 319 320 319 315 321 324 315 315 316 319 323 315 314 319 315 316 315 310 313 314 312 312 311 312 314 313 314 314 314 315 314 314 314 314 314 314 314 314 314 314 314 314 314 314 314 314 314 314 314 314 314 314 314 313 313 313 313 313 313 313 313 313 313 313 313 313 313 312 312 311 310 308 307 306
319 320 314 313 316 315 312 313 314 311 312 318 318 316 318 318 320 321 317 317 314 315 321 316 314 318 317 319 318 313 314 314 312 313 312 311 312 312 313 313 313 314 313 314 314 314 314 314 314 314 314 314 314 314 314 314 314 314 313 313 313 313 313 313 313 313 313 313 313 313 313 313 313 313 313 313 313 312 312 310 309 308 307 306 305 304
319 321 317 312 314 315 316 316 317 316 312 313 314 312 317 322 323 321 317 318 319 317 320 317 313 319 322 319 320 318 318 314 312 314 313 310 311 312 313 313 313 313 313 314 314 313 314 314 314 314 313 314 314 313 314 313 313 313 313 313 313 313 313 313 313 313 313 313 313 313 313 313 313 313 313 312 311 310 309 308 307 306 305 304 303 303
315 319 319 314 313 314 316 316 316 317 314 314 315 313 314 316 318 321 317 319 324 322 323 318 315 328 329 317 316 319 318 315 311 312 312 309 311 313 313 313 313 313 313 313 313 313 313 313 313 313 313 313 313 313 313 313 313 313 313 313 313 313 313 313 313 313 313 313 313 313 313 313 313 312 311 310 309 308 307 306 305 304 304 303 302 302
317 318 317 316 315 316 317 315 313 315 314 314 314 314 315 315 316 318 315 317 320 320 327 323 317 331 327 311 313 317 313 311 308 309 310 309 311 313 313 313 313 313 314 313 313 313 313 313 313 313 313 313 313 313 313 313 313 313 313 313 313 313 313 313 313 313 313 313 312 313 312 312 311 310 309 308 307 306 306 305 304 303 303 302 301 301
319 318 317 316 316 316 315 311 308 311 314 314 314 315 317 316 318 319 319 322 317 313 323 322 316 328 325 310 312 313 308 307 307 308 309 309 311 313 313 314 313 313 313 313 313 313 313 313 313 313 313 312 312 313 312 313 313 313 313 313 313 313 312 313 313 312 312 312 312 312 311 310 309 309 308 307 306 305 304 304 303 302 302 301 301 301
317 318 318 316 315 315 316 312 309 310 314 315 315 316 317 316 320 324 325 326 320 313 317 315 313 329 329 310 305 306 305 307 308 308 310 309 311 313 313 314 313 313 313 313 313 313 313 313 313 312 312 312 312 313 312 313 312 313 313 312 312 312 312 313 313 312 312 312 311 311 310 309 308 307 306 305 305 304 303 303 302 302 301 301 300 300
318 318 317 317 316 317 318 316 314 313 314 317 319 317 318 318 318 319 318 316 318 321 321 316 317 327 328 313 306 306 308 308 307 308 310 311 311 313 314 314 313 312 312 312 313 313 313 313 312 312 312 312 313 312 312 313 312 312 313 312 312 312 312 313 312 312 312 311 310 309 308 308 307 306 305 304 304 303 302 302 302 301 301 300 299 299
323 321 318 318 317 316 317 316 316 317 315 317 318 316 318 320 316 316 318 315 318 322 319 317 321 322 320 316 312 311 311 311 309 308 310 312 312 313 314 313 313 312 312 312 312 312 312 312 312 312 312 312 312 312 312 312 312 312 312 312 312 312 312 312 311 311 310 309 309 308 307 306 305 304 304 303 303 302 302 301 301 300 300 299 299 299
324 320 316 318 316 314 315 315 317 320 316 316 318 317 318 319 315 318 322 318 318 320 317 318 320 316 317 319 318 315 315 314 312 309 310 312 312 313 314 313 313 312 312 312 312 312 312 312 312 312 312 312 312 312 312 312 312 312 312 312 312 312 312 311 310 310 309 308 307 307 306 305 304 303 302 302 302 301 301 301 300 300 300 299 299 298
322 317 315 317 315 314 316 316 317 318 315 315 317 317 316 317 317 318 318 316 317 318 317 318 318 315 316 320 322 321 317 313 310 308 310 312 312 313 314 313 312 312 312 312 312 312 312 311 312 311 312 312 312 312 312 312 312 312 312 312 312 311 311 310 309 309 308 307 306 305 304 303 302 302 301 301 301 300 300 300 299 299 299 299 298 298
320 317 317 317 315 315 316 317 316 316 315 315 316 316 317 317 318 318 316 316 318 317 314 316 318 316 315 318 322 321 314 309 309 309 311 312 312 313 313 313 313 312 312 312 312 312 312 311 312 312 311 312 312 312 312 312 312 312 312 312 311 311 310 309 308 307 306 305 304 304 303 302 301 301 300 300 300 300 300 299 299 299 298 298 298 297
316 317 317 315 313 315 317 318 317 315 315 316 316 315 316 316 317 317 316 315 316 317 315 315 316 316 315 317 319 316 310 308 308 310 312 312 312 313 313 313 313 312 312 312 312 312 312 311 312 311 312 312 312 312 312 312 312 311 311 311 311 310 309 308 307 306 305 304 303 303 302 301 301 300 300 300 299 299 299 298 298 298 297 298 297 297
313 317 318 316 314 314 317 318 318 318 317 316 316 316 315 315 315 315 316 315 315 316 316 315 316 316 314 312 314 313 311 308 307 308 311 312 312 312 313 313 313 313 313 312 312 312 312 311 311 312 312 312 312 312 312 312 311 311 311 311 310 309 308 307 306 305 304 303 302 302 301 301 300 300 300 300 299 299 298 298 298 298 298 297 297 296
315 319 319 319 317 315 317 318 317 318 317 315 317 318 316 316 315 315 315 315 315 315 316 316 316 315 313 311 312 312 310 307 306 308 309 311 313 313 313 313 313 313 313 312 312 312 312 312 312 312 312 312 312 312 312 312 311 311 311 310 309 308 307 305 304 303 303 302 301 301 300 300 300 300 299 299 298 298 298 298 298 298 297 297 296 296
320 322 321 320 318 315 314 316 317 317 316 315 317 318 316 314 314 314 314 315 314 314 315 315 314 313 313 314 314 313 309 307 308 309 309 311 312 313 313 313 313 313 313 313 312 312 312 312 312 312 313 312 312 312 312 312 311 311 311 310 309 307 306 305 303 302 302 301 301 300 300 300 299 299 298 298 298 298 298 298 298 297 297 296 296 295
318 321 320 319 319 316 314 315 317 317 315 314 316 318 316 315 314 315 315 315 314 313 314 314 313 313 314 315 315 314 312 311 311 312 312 312 312 313 313 313 313 313 313 313 313 312 312 312 312 312 312 312 312 312 311 311 311 311 310 309 308 306 305 304 303 301 301 300 300 300 299 299 298 298 298 298 298 298 298 298 297 297 296 296 295 295
316 318 318 317 318 317 315 315 317 315 313 315 320 321 317 314 315 316 316 315 313 313 314 313 313 313 312 312 312 312 312 312 313 314 314 313 312 312 313 312 312 312 312 313 313 312 312 312 312 312 312 312 312 311 311 311 310 310 309 308 307 306 304 303 302 301 300 300 299 299 299 298 298 297 297 298 298 298 298 297 297 296 296 295 295 295
316 316 315 315 316 316 314 314 316 316 314 317 321 319 314 314 315 315 316 315 314 314 314 313 313 312 309 309 311 311 311 312 312 312 313 313 312 312 312 312 312 312 312 312 312 312 312 312 312 312 312 312 312 311 311 311 310 309 308 307 306 304 303 302 301 300 300 299 299 298 298 297 297 297 298 298 298 298 298 297 296 295 295 294 294 294
312 315 315 314 315 316 314 313 315 316 315 316 318 315 312 314 316 316 316 316 314 314 313 312 313 312 310 310 311 312 311 311 311 312 313 313 313 312 312 313 313 312 312 312 312 312 312 312 312 312 312 312 311 311 311 310 309 308 307 306 305 303 302 301 300 299 299 298 298 298 297 297 297 298 298 298 298 297 297 296 295 295 294 294 293 293
312 314 315 314 315 317 317 314 314 316 315 315 315 314 312 311 313 314 315 315 314 312 311 311 313 313 310 310 310 310 311 312 314 314 313 313 313 312 312 312 312 312 312 311 312 312 311 312 312 311 311 311 311 311 310 309 309 308 307 306 304 303 302 300 299 299 298 298 298 297 297 297 297 298 298 298 297 296 295 295 294 294 293 293 292 292
315 315 315 315 315 316 316 315 315 315 315 315 318 317 311 310 311 311 313 315 313 310 310 311 312 312 310 309 310 310 312 315 315 313 312 313 313 312 311 311 311 311 311 311 311 311 311 311 311 311 311 311 311 310 310 309 308 307 306 305 304 303 301 300 299 298 298 297 297 297 297 297 298 298 298 297 296 295 294 293 293 293 292 292 292 292
314 315 315 314 314 314 314 314 314 314 314 319 323 317 311 310 312 313 315 316 312 309 310 311 310 310 311 310 309 310 313 315 314 312 311 312 312 312 311 311 310 311 311 311 311 311 311 311 311 311 311 311 311 310 309 308 307 307 306 305 304 302 301 299 298 298 297 297 297 297 297 297 297 297 297 296 295 294 293 293 292 292 291 291 291 291
314 315 314 313 314 314 314 313 314 315 318 323 321 312 308 310 313 314 316 315 310 309 309 310 309 310 310 309 309 311 312 312 311 312 312 312 312 312 312 311 311 311 310 310 310 310 311 310 310 311 310 310 310 310 309 308 307 306 305 304 303 301 299 298 297 297 297 297 296 297 297 297 297 297 296 295 294 293 292 292 291 291 291 291 291 291
314 314 314 313 313 314 314 314 314 315 317 318 313 308 307 312 316 316 314 311 310 309 309 310 310 310 310 309 309 311 311 310 311 311 311 311 311 311 311 311 311 310 310 310 310 310 310 310 310 310 310 310 310 309 308 308 306 305 304 303 301 300 298 297 297 296 296 296 296 296 297 296 296 295 294 293 293 292 292 291 291 290 290 290 291 291
312 313 314 313 313 314 313 312 314 315 312 311 311 309 310 314 318 316 311 309 310 310 310 310 310 310 310 310 310 310 310 310 310 310 310 310 310 310 310 310 310 310 310 310 310 310 310 310 310 310 309 309 309 308 307 307 305 304 303 301 300 299 298 297 296 296 296 296 296 296 296 296 295 294 293 292 292 291 291 290 290 290 290 290 291 291
312 314 315 313 313 314 313 313 317 316 310 309 311 312 312 313 313 310 309 309 309 309 309 310 310 310 310 310 310 310 309 309 309 310 310 310 310 309 310 309 309 310 309 309 309 309 309 310 309 309 309 308 308 307 306 305 304 303 301 300 299 298 297 296 296 296 296 296 296 295 295 295 294 293 292 292 291 290 290 290 290 290 290 290 290 290
312 313 315 314 313 314 314 315 316 312 307 307 310 310 310 310 310 309 309 309 308 308 309 309 309 309 310 310 310 310 309 309 309 309 309 309 309 309 309 309 309 309 309 309 309 308 309 309 309 309 308 308 307 306 305 304 303 302 301 299 298 297 296 296 296 296 295 295 295 295 294 294 293 292 291 291 290 290 290 290 290 290 290 290 290 290
310 308 310 313 314 313 311 311 310 307 307 308 308 308 308 309 309 309 309 308 308 308 308 308 308 309 309 309 309 309 309 309 309 309 309 309 309 309 309 309 309 308 308 308 308 308 308 308 308 308 308 307 306 305 304 302 301 301 300 299 297 296 295 296 295 295 295 295 295 294 293 293 292 291 291 290 290 290 289 290 290 290 290 290 289 289
309 306 308 314 315 313 313 315 312 308 308 308 307 307 307 308 308 308 309 308 307 307 308 307 308 308 308 308 308 308 309 309 309 309 309 309 309 309 308 308 308 308 308 308 307 307 307 307 307 307 306 306 306 305 303 302 301 299 298 297 296 295 295 295 295 294 294 294 294 293 292 292 291 290 290 289 289 289 289 290 290 290 289 289 289 288
310 307 311 317 315 312 312 312 307 305 305 306 307 307 306 307 308 307 308 308 307 307 308 308 308 308 308 308 308 308 308 309 309 309 309 309 309 308 308 308 308 308 307 307 307 307 306 306 306 306 305 306 305 304 303 302 300 298 296 295 295 295 295 295 294 294 294 293 293 292 291 291 290 290 289 289 289 289 289 289 289 289 289 288 288 288
308 308 313 316 314 312 310 306 303 306 306 303 304 306 306 306 307 307 307 307 307 307 308 307 308 308 308 308 308 308 308 308 308 308 309 308 308 308 308 307 307 307 307 307 306 306 306 305 305 305 305 305 304 304 303 301 299 297 295 294 294 294 294 294 294 294 293 292 292 291 291 290 290 289 289 289 289 289 289 289 289 289 288 288 287 287
308 312 313 313 313 314 312 308 307 311 309 302 300 303 304 304 305 305 305 305 305 306 306 306 306 307 307 307 308 307 307 308 307 307 307 307 307 307 307 306 306 306 306 306 306 306 305 305 305 304 304 304 304 303 303 301 298 296 295 294 294 294 294 294 293 293 292 292 291 291 290 290 289 289 289 289 289 289 289 289 289 288 288 287 287 287
307 311 311 312 312 311 308 305 305 306 304 300 299 301 301 302 303 303 303 303 303 303 303 303 304 305 305 306 306 306 307 307 307 307 306 306 306 306 306 306 306 306 306 306 306 306 305 305 305 304 304 304 304 303 302 300 298 295 294 294 294 294 294 293 292 292 292 291 290 290 290 289 289 289 289 289 289 289 289 288 288 288 287 287 287 286
Wind_Speed
12 5 5 7 6 7 7 7 7 7 6 8 6 4 6 6 2 2 2 3 4 5 5 7 6 7 8 7 10 16 17 16 19 18 18 21 22 24 22 21 20 19 19 17 17 18 18 18 18 18 18 18 18 18 18 19 20 20 20 19 18 17 16 16 16 16 16 16 15 16 16 15 16 17 18 18 18 18 17 17 16 16 16 16 16 17
11 6 6 7 7 8 8 7 7 7 4 5 6 5 4 5 3 2 1 3 1 3 5 4 4 8 8 7 11 15 12 13 20 20 20 21 21 23 24 22 20 17 17 17 17 18 18 19 19 19 20 20 20 20 20 20 20 20 20 20 19 18 18 18 17 17 17 16 15 15 14 13 14 15 16 17 17 17 17 17 16 15 15 14 15 16
7 6 7 9 8 8 7 8 8 8 5 5 5 6 4 4 3 1 2 2 2 2 3 1 5 9 8 7 9 13 15 18 25 25 22 23 21 22 23 22 22 21 20 19 19 19 19 19 20 20 21 20 20 20 20 20 20 21 21 20 20 20 20 19 19 19 18 17 16 15 14 13 13 13 13 14 14 14 15 14 13 13 13 13 15 15
5 6 7 11 10 8 7 9 9 6 4 4 5 6 5 5 5 1 2 2 2 2 1 2 2 6 6 5 7 14 21 21 25 26 24 24 24 23 23 22 23 24 23 22 21 21 21 21 20 20 20 20 21 21 22 22 22 22 22 22 21 21 21 20 20 20 18 17 16 15 14 13 13 13 13 13 13 13 13 12 11 11 11 12 13 14
5 6 8 11 10 8 7 8 8 6 4 3 6 7 5 6 5 3 3 2 3 2 1 4 3 6 5 6 8 10 15 17 20 24 22 21 22 22 22 22 23 24 24 24 22 22 23 22 21 20 20 21 21 22 23 24 24 24 23 23 23 22 22 22 21 20 19 19 18 17 16 15 16 16 15 14 14 13 12 11 10 10 11 12 13 13
5 6 8 9 10 9 7 6 7 8 4 3 5 7 9 10 6 6 7 6 4 3 2 3 2 5 4 6 10 6 6 9 12 17 20 20 20 20 21 22 22 23 24 23 23 23 23 23 23 22 23 23 23 23 23 24 24 24 24 24 24 24 23 23 22 21 20 20 19 18 18 17 17 16 15 14 14 14 13 12 12 12 12 13 13 12
3 3 5 7 11 10 7 6 7 8 5 2 4 5 9 10 9 11 9 6 3 3 3 4 5 5 5 4 9 6 6 7 6 9 16 19 19 20 21 21 22 23 23 24 24 24 24 24 25 25 25 25 24 24 24 24 25 25 25 25 25 25 25 24 23 22 22 21 20 19 18 18 16 16 15 15 15 15 16 16 16 15 13 12 11 11
1 4 3 5 10 9 7 6 6 8 7 3 4 6 11 11 10 11 9 4 3 4 2 4 4 2 4 6 6 4 7 6 5 7 10 15 17 17 18 19 20 22 22 23 24 24 24 25 25 25 26 26 26 26 26 26 26 26 26 26 26 26 25 25 24 23 23 22 21 20 19 18 18 17 17 17 18 19 19 18 17 16 14 12 11 11
1 6 6 6 8 7 6 4 4 8 6 4 4 7 10 9 9 8 7 4 2 4 1 5 2 2 5 6 4 3 6 6 8 9 10 14 17 16 16 17 18 19 20 21 22 23 25 26 25 25 25 25 26 26 27 27 27 27 27 26 26 26 26 25 24 24 23 22 21 20 20 20 20 20 21 20 20 20 19 16 14 13 12 11 10 10
2 4 4 4 6 5 5 3 4 6 4 4 5 7 6 6 7 6 5 5 3 3 4 7 2 2 5 5 2 2 3 7 9 8 9 13 17 16 16 16 16 17 17 18 19 20 23 24 25 25 24 24 24 24 25 26 27 27 27 26 25 25 25 25 25 24 23 21 21 21 22 22 22 23 22 20 18 17 14 10 8 9 9 8 8 8
3 0 1 1 3 4 5 3 1 4 7 8 7 8 7 6 5 4 3 5 4 1 6 6 1 3 2 5 3 4 4 7 7 5 6 11 16 17 16 16 16 15 16 16 16 17 19 20 21 22 22 21 20 20 21 23 25 26 27 26 25 25 25 25 24 23 22 22 22 23 24 24 23 22 20 17 16 13 10 7 6 6 5 4 4 3
4 2 1 1 1 1 6 5 5 3 7 8 6 6 5 4 4 4 4 3 3 4 6 4 1 3 3 6 5 5 6 6 8 7 8 11 16 18 16 15 14 14 14 15 15 15 16 17 18 19 19 18 17 17 18 20 22 24 25 26 25 25 25 24 24 22 22 22 22 23 22 22 21 19 16 14 12 9 7 6 5 4 4 3 2 0
4 3 3 3 3 1 4 4 4 4 4 6 6 7 6 2 2 1 2 1 3 5 3 2 1 2 5 7 7 7 7 6 8 12 14 17 20 19 16 14 13 12 12 14 15 14 15 16 16 16 16 15 15 14 15 16 18 20 22 24 24 24 24 23 23 22 22 21 20 19 18 18 16 13 10 10 9 9 8 7 6 5 3 2 1 2
1 4 4 2 3 2 2 4 4 1 1 5 7 6 5 4 3 2 3 1 3 4 3 2 1 2 4 6 7 9 7 6 8 13 18 23 24 20 17 15 13 12 11 12 13 14 15 15 14 14 14 14 14 14 14 14 15 17 18 19 19 19 20 20 20 19 19 17 16 14 13 13 13 11 12 11 10 9 7 6 4 3 3 2 2 2
4 1 2 1 0 1 1 3 5 6 5 4 5 6 6 5 5 4 4 3 3 2 2 2 1 4 4 3 6 6 3 1 4 11 17 20 21 19 17 15 14 14 13 13 14 14 15 15 14 14 14 14 14 14 15 15 16 16 16 16 16 15 15 15 15 15 15 15 15 15 15 15 14 13 12 10 9 7 6 5 4 4 3 3 2 2
6 2 3 3 1 0 1 2 2 7 4 3 3 6 4 5 5 4 4 5 5 1 1 2 3 4 4 4 5 2 2 4 7 11 15 17 18 19 19 18 17 16 15 15 15 15 15 14 14 14 14 15 15 15 15 16 16 17 17 17 16 16 16 16 16 17 17 18 18 18 17 16 14 12 10 9 8 7 6 5 5 4 3 2 1 1
6 2 4 4 2 1 0 2 1 3 4 1 3 4 5 5 7 5 2 1 4 2 2 2 3 4 3 4 4 2 1 1 4 8 14 17 19 20 20 19 19 18 17 17 17 16 16 15 15 15 16 17 17 17 17 17 18 18 18 18 18 19 19 20 21 21 21 20 19 18 16 14 13 11 10 9 8 7 7 6 5 4 3 2 1 1
6 1 4 2 1 2 3 2 3 3 3 4 4 6 4 3 4 5 2 2 3 2 3 2 4 4 1 2 4 3 4 6 4 5 9 14 18 20 20 20 19 19 18 18 17 17 17 17 17 18 18 18 18 18 18 19 20 19 19 20 20 21 22 22 22 22 20 19 17 16 14 13 12 11 10 9 9 8 7 6 5 4 3 2 2 1
5 3 3 1 1 3 4 2 1 3 2 4 4 3 4 2 1 2 3 2 2 3 4 3 3 3 4 4 4 5 8 9 8 7 7 11 17 20 20 20 20 19 20 19 19 19 19 19 19 19 20 19 19 19 19 20 21 22 22 22 23 23 23 22 21 20 18 17 15 14 13 13 12 11 10 10 9 8 7 6 5 4 3 2 2 1
4 4 2 2 2 1 3 2 4 2 2 2 2 2 3 3 4 3 3 4 3 4 4 2 1 3 6 6 7 9 12 11 10 9 9 13 20 23 23 23 22 21 21 21 21 21 21 21 21 21 21 20 20 20 20 22 23 23 24 23 23 22 21 20 19 17 17 16 14 13 13 13 12 11 10 9 9 8 7 6 5 4 3 2 2 2
3 3 3 1 2 1 1 2 5 6 3 2 2 3 1 1 3 2 2 3 4 4 4 2 2 5 6 5 8 11 11 11 12 10 10 16 22 24 25 25 24 23 22 22 23 23 23 23 23 22 21 21 21 22 23 24 24 24 23 22 21 20 19 18 18 16 16 15 14 13 13 13 12 12 11 10 9 8 7 6 5 4 3 2 1 2
2 3 5 3 0 2 3 3 2 4 4 3 4 6 5 3 4 3 3 2 2 3 4 4 3 7 6 4 5 8 7 8 12 13 12 18 24 25 25 25 24 23 23 23 24 24 24 24 23 23 23 23 24 24 25 24 23 23 22 21 20 19 18 17 17 16 16 15 15 14 13 13 13 13 12 11 10 9 7 6 5 4 3 1 0 2
4 4 4 2 2 4 4 3 2 2 2 3 2 3 4 4 4 5 5 4 1 1 2 4 2 6 6 4 4 6 6 7 14 17 15 19 24 25 25 24 23 23 24 24 24 25 25 25 24 25 25 25 25 25 25 24 23 22 21 20 19 18 18 17 16 16 16 15 15 14 14 14 13 13 12 11 10 9 8 7 5 4 2 1 1 3
5 4 4 2 1 3 4 3 2 1 1 2 3 3 4 3 3 5 5 4 3 3 2 2 3 6 6 5 5 7 7 5 12 19 18 19 23 25 25 24 23 23 24 24 25 25 26 26 26 27 27 27 26 25 24 24 23 22 20 20 19 18 18 17 17 16 16 15 16 16 15 15 14 13 12 11 10 9 8 6 5 3 2 1 2 4
4 3 4 4 2 2 3 2 2 2 2 3 3 2 3 4 5 4 2 3 1 4 6 5 5 7 6 5 5 6 5 1 11 19 20 21 23 25 25 25 25 25 26 26 26 27 27 28 28 29 28 27 27 26 25 24 22 21 20 19 19 18 18 18 17 17 17 16 17 17 16 15 14 13 12 11 10 9 7 6 4 2 1 2 3 5
5 3 5 5 5 6 5 5 4 3 2 1 1 3 4 6 8 5 2 3 3 4 5 6 6 7 6 5 5 5 4 1 8 15 19 21 25 27 27 27 27 27 28 28 28 29 29 29 30 30 29 28 27 26 25 24 22 22 21 20 20 19 19 19 18 18 18 18 17 17 16 15 14 14 12 11 9 8 6 5 3 2 2 3 4 7
4 2 6 7 9 11 8 6 5 7 6 5 7 9 8 8 10 7 4 4 5 3 4 6 7 7 7 5 5 6 3 3 6 12 18 21 24 27 28 28 28 29 29 29 29 30 30 31 31 31 30 28 27 26 24 23 23 23 22 22 21 20 20 20 20 20 19 19 18 17 16 16 14 13 12 10 9 7 6 5 4 3 3 4 6 8
4 3 7 8 10 9 7 7 8 11 11 12 12 11 9 7 7 8 7 7 5 4 4 8 7 7 7 6 7 7 5 5 6 12 20 23 26 28 28 28 28 29 29 29 30 31 32 33 32 31 30 29 28 27 25 25 24 24 23 22 22 22 21 21 21 21 20 19 18 17 16 15 14 12 11 10 9 7 6 5 3 3 4 6 8 9
4 5 6 6 7 3 4 7 10 11 10 11 12 13 11 10 10 10 12 10 7 6 10 12 10 10 8 7 8 8 8 11 14 18 21 22 24 27 27 29 30 30 31 32 33 34 34 34 34 33 32 31 30 29 28 27 26 25 25 24 23 23 22 22 21 21 21 20 19 18 16 15 14 12 11 10 8 7 5 3 3 4 5 7 8 9
3 4 3 5 6 1 1 5 9 10 8 7 10 13 13 13 14 14 15 14 11 11 13 12 9 10 8 8 9 9 10 14 15 16 18 19 23 26 28 30 31 33 35 36 37 36 36 36 36 35 34 33 32 31 30 30 28 27 26 25 24 24 23 23 23 22 21 20 19 18 17 15 14 13 11 9 7 5 3 3 3 5 6 7 8 9
2 3 1 4 4 1 3 3 3 7 7 7 7 8 10 12 13 14 14 13 10 9 11 8 7 10 7 9 11 12 11 9 10 15 20 22 24 27 29 31 32 35 37 38 38 38 37 37 37 36 36 35 34 33 32 31 29 28 27 26 25 25 25 25 24 22 21 20 19 18 17 16 15 13 11 8 6 4 3 3 4 5 6 7 9 10
2 1 1 5 4 2 4 4 3 4 4 3 5 8 12 13 12 13 13 11 9 10 11 8 8 11 5 8 11 12 9 11 13 19 23 23 24 27 30 32 33 35 37 39 40 40 39 39 40 40 39 38 36 35 33 32 30 29 28 27 27 27 26 25 24 23 22 21 20 19 17 16 14 12 10 7 5 4 3 4 4 5 7 8 10 11
4 4 2 3 4 2 5 2 3 6 3 4 7 10 15 14 11 9 8 9 10 10 9 9 11 11 4 7 9 7 8 12 17 20 22 23 26 29 31 31 32 33 35 37 40 42 43 43 43 43 42 40 38 36 33 32 31 30 29 29 29 28 27 26 25 24 23 22 21 19 17 15 13 11 9 7 6 5 4 4 5 6 8 9 11 13
4 6 3 2 3 1 4 2 4 3 5 7 3 8 13 13 12 10 10 13 13 11 9 10 10 6 4 7 10 7 10 16 21 24 25 25 26 29 30 31 31 31 32 34 37 41 44 45 44 44 43 41 38 36 33 32 30 30 30 30 29 28 27 27 26 25 24 23 21 19 17 15 13 10 9 8 6 6 5 5 6 7 9 11 12 14
5 5 4 3 3 1 1 4 2 6 9 5 1 6 11 12 14 15 15 15 14 12 12 12 12 8 7 12 16 17 18 20 22 24 24 24 26 27 28 30 30 30 32 33 35 39 43 46 46 45 44 42 39 36 35 34 32 31 31 31 30 29 28 28 27 26 25 23 21 19 17 14 12 11 9 8 7 6 5 6 7 9 10 12 14 15
9 7 4 3 3 2 3 4 6 7 5 5 5 3 5 6 8 9 10 10 9 9 11 13 16 14 13 17 21 19 16 16 18 23 24 24 25 25 25 26 26 27 29 30 32 36 39 43 46 47 46 43 40 39 37 36 35 34 33 32 31 30 29 29 28 27 25 23 21 19 17 14 13 11 10 8 7 5 5 7 8 10 11 12 14 16
9 8 5 4 4 3 4 5 4 5 8 9 7 4 6 7 7 7 6 10 9 12 14 14 16 16 13 17 21 16 10 7 9 17 24 25 24 25 25 25 25 26 27 27 30 33 35 38 43 45 45 44 42 40 39 37 36 35 34 33 32 31 31 30 29 27 25 23 21 19 17 15 13 11 10 8 6 6 6 8 9 10 12 13 14 15
6 7 7 6 4 3 5 2 1 3 9 10 6 6 9 11 11 10 6 9 8 14 19 16 14 15 12 12 16 13 7 4 4 13 24 26 25 26 27 28 29 28 26 27 29 31 33 36 40 42 42 42 42 40 39 37 36 36 35 35 34 33 32 31 29 27 25 23 21 19 17 15 13 11 9 7 6 6 7 8 10 11 13 14 15 16
5 3 5 6 4 4 5 4 5 7 10 6 6 7 12 17 15 12 4 9 5 13 23 20 15 15 13 14 16 12 7 4 6 15 23 23 24 28 30 30 30 28 27 27 27 29 31 33 36 38 39 40 41 40 39 37 37 37 36 36 35 34 33 32 30 28 25 23 21 19 17 14 12 11 9 7 6 7 8 9 10 12 13 14 15 17
6 4 3 5 5 5 6 5 4 5 7 5 6 8 17 23 19 13 3 10 5 15 23 22 19 20 20 21 18 11 7 9 10 12 16 14 16 23 25 25 26 26 26 26 26 27 28 30 33 36 37 39 40 39 39 39 38 38 37 36 36 35 33 32 29 27 25 23 21 18 16 14 12 10 8 7 7 7 8 9 11 12 13 14 16 18
3 2 3 5 5 5 6 5 4 4 6 6 5 9 20 22 14 7 7 6 7 13 14 14 19 23 21 19 17 14 16 18 12 7 7 7 10 15 17 19 21 22 23 23 23 25 27 29 31 33 34 36 38 39 40 40 39 39 38 37 36 35 33 31 29 27 25 22 20 18 16 14 12 9 8 7 7 8 9 10 11 12 13 15 17 19
3 2 2 4 4 4 4 3 3 6 6 5 6 9 17 14 4 7 7 5 8 11 7 6 12 15 14 16 20 22 23 20 12 7 6 6 8 10 11 13 15 17 19 20 20 22 25 28 31 32 34 35 36 39 41 41 40 40 39 38 36 34 33 31 29 27 24 22 20 17 15 13 10 9 8 7 8 9 9 10 11 13 14 16 18 20
6 5 3 4 5 4 2 3 4 6 4 13 14 7 8 6 3 6 9 7 7 9 6 5 6 6 9 13 17 20 20 16 13 11 8 8 9 10 10 11 11 13 15 16 18 21 23 27 30 32 34 35 36 39 41 41 41 40 39 38 36 34 32 31 28 26 23 21 19 16 14 12 10 9 8 8 9 9 9 10 12 14 15 17 20 21
5 6 5 4 4 5 4 7 6 4 8 17 12 3 10 9 2 4 11 10 9 9 9 9 9 7 6 6 8 13 16 14 13 12 10 10 10 10 10 10 10 11 13 15 17 20 22 26 29 31 33 35 37 40 41 41 41 40 39 37 35 33 32 30 27 25 22 20 18 15 13 11 10 9 9 9 9 9 9 11 12 14 16 19 21 22
7 8 5 4 5 5 5 8 6 4 10 11 3 2 14 14 4 5 11 12 13 12 10 11 11 9 7 6 5 7 9 10 10 10 9 9 9 9 9 9 9 11 12 14 17 20 23 26 28 30 33 35 38 40 40 40 40 38 37 35 34 33 32 29 26 24 21 19 17 14 13 11 10 10 10 9 9 9 10 12 13 15 17 19 21 22
5 6 5 3 4 4 4 5 4 5 10 8 5 6 14 14 9 10 12 13 14 12 10 11 10 9 8 6 5 5 5 6 6 5 6 7 8 9 10 11 12 13 14 16 19 21 24 26 28 30 32 34 37 40 40 40 38 36 35 34 34 33 30 28 25 23 20 18 16 14 13 12 11 11 10 9 10 10 11 13 14 16 18 19 20 21
3 5 4 2 5 5 5 5 4 7 11 9 7 8 12 12 11 11 11 11 12 10 9 9 8 7 6 4 3 2 1 2 3 4 6 8 9 11 12 13 14 15 16 18 19 21 23 25 27 30 31 33 37 39 40 39 37 35 34 34 33 32 29 27 24 21 19 18 16 14 13 12 11 11 10 10 11 11 13 14 15 17 18 19 19 21
3 7 5 3 6 6 3 2 6 10 10 8 7 8 9 9 9 8 7 7 7 7 7 7 7 5 4 2 0 1 2 4 5 7 8 10 11 12 13 14 15 16 17 18 19 20 22 24 25 28 30 32 35 38 39 38 37 35 34 33 32 31 28 25 23 21 19 18 16 15 13 12 12 11 11 11 12 12 14 15 16 17 18 19 20 22
6 8 5 3 4 1 2 2 8 11 9 7 7 7 7 6 6 6 6 6 5 5 4 4 4 3 2 1 2 3 3 5 6 8 10 12 13 13 14 15 15 16 17 18 18 20 21 22 24 26 28 31 34 37 38 38 37 36 34 32 31 29 27 24 23 21 20 18 16 14 13 13 13 12 12 13 13 14 14 15 16 17 18 19 20 22
7 6 3 4 5 4 2 6 8 7 4 4 9 11 10 8 8 8 8 8 7 6 5 4 4 3 2 1 1 1 2 4 6 8 11 12 12 13 13 14 14 15 16 17 18 19 20 21 23 25 27 30 34 36 37 37 37 36 34 33 31 28 26 24 23 21 20 18 16 15 14 14 14 14 14 14 14 13 14 15 16 17 18 19 20 21
4 4 5 6 5 4 4 8 11 11 8 8 13 16 15 13 12 12 13 13 11 10 10 8 7 6 4 2 2 2 2 3 5 7 8 8 9 10 10 11 13 14 15 17 18 19 20 22 23 26 28 30 33 35 36 36 36 35 34 33 30 28 26 24 23 21 19 17 16 16 16 15 15 15 15 15 14 14 14 15 15 16 17 19 20 21
Wind_Direction
191 176 199 202 192 194 184 159 185 212 182 166 163 149 160 156 192 230 254 277 139 136 212 201 205 236 228 239 237 216 206 213 219 214 208 205 204 205 205 208 212 219 224 222 218 217 218 218 217 218 218 217 216 215 215 215 217 220 222 224 226 225 225 225 227 229 231 232 234 239 244 250 253 255 257 258 261 263 264 266 269 271 274 276 277 279
188 199 214 198 180 184 186 176 203 232 215 176 168 168 187 164 180 235 210 272 59 146 233 205 204 252 240 237 242 217 201 215 218 212 210 209 207 206 206 208 210 216 221 218 215 214 215 217 215 216 218 217 219 219 218 219 218 220 223 226 227 228 228 230 232 234 237 240 242 247 254 260 259 257 258 261 263 265 264 265 267 270 272 273 275 276
193 217 211 199 188 176 183 191 211 231 211 197 186 170 203 195 160 352 337 329 30 145 258 226 198 248 255 252 246 209 196 212 212 205 205 205 205 205 205 207 207 208 213 213 212 211 212 214 215 216 218 219 222 222 223 223 222 223 225 227 228 229 231 233 234 236 239 243 246 250 254 258 260 260 261 260 258 258 258 260 262 264 267 268 270 272
198 224 203 198 193 171 183 202 211 230 214 189 183 175 200 190 158 197 277 319 39 122 169 110 190 271 276 270 263 219 207 212 212 209 209 208 209 211 208 209 210 207 207 209 208 209 210 213 216 219 222 223 223 223 225 226 227 229 231 232 231 230 233 234 235 238 240 242 244 246 248 251 257 258 257 257 256 256 255 255 257 260 266 270 271 273
211 217 184 187 197 180 181 204 201 207 236 211 183 185 182 177 176 175 167 136 27 14 92 83 21 309 259 237 260 231 209 214 217 213 215 217 216 216 214 213 213 209 207 207 206 206 210 214 218 222 225 226 226 226 227 229 231 234 234 235 235 233 234 235 237 238 238 239 239 237 237 240 246 251 254 257 260 263 264 260 259 260 261 264 270 276
221 214 168 173 197 191 182 204 196 183 215 240 200 194 175 168 152 123 126 109 57 330 269 105 65 294 274 232 241 229 193 210 213 207 207 208 206 206 207 204 202 201 201 206 208 208 211 215 219 223 227 229 230 230 230 231 232 234 235 235 235 235 235 235 236 238 238 238 237 236 237 240 244 250 256 259 261 264 264 261 260 260 257 258 261 264
238 207 161 177 189 191 187 203 205 172 159 222 233 191 154 141 127 132 136 116 120 223 263 109 150 259 312 275 245 219 194 211 212 211 208 202 199 199 199 197 197 198 199 204 210 213 214 217 220 223 227 229 231 231 230 230 230 231 232 232 234 235 235 235 234 235 236 237 237 236 239 242 246 248 252 255 256 255 253 251 251 253 252 254 261 263
224 179 184 190 179 185 184 194 211 160 137 214 233 142 132 130 136 149 141 123 168 181 355 34 131 209 289 275 268 186 179 220 242 240 230 215 211 209 208 209 210 211 211 212 215 220 223 225 225 225 225 226 227 228 229 229 230 229 229 229 230 232 233 233 233 232 233 235 235 235 235 237 239 241 244 247 249 249 247 244 245 251 256 262 272 278
182 181 197 182 166 184 189 197 200 145 130 232 206 132 136 138 141 146 128 111 105 114 322 299 146 162 267 274 316 100 159 224 238 234 234 219 212 212 214 215 219 221 221 220 221 224 227 230 232 231 230 228 226 225 226 227 228 228 228 227 226 227 228 230 230 230 231 232 233 232 233 233 234 235 239 243 246 245 244 242 245 253 261 270 279 286
242 192 204 173 159 185 188 203 194 146 132 191 143 97 89 84 98 109 109 105 70 95 226 252 189 159 267 281 320 85 183 223 230 236 230 212 203 204 208 210 216 224 225 225 222 221 224 227 231 233 234 233 230 226 225 225 226 227 226 225 223 223 223 225 226 227 227 228 228 228 229 231 232 235 239 243 243 242 243 245 251 257 264 274 281 284
275 341 351 139 159 174 151 132 192 149 136 129 99 75 64 43 52 62 56 91 92 251 243 248 225 132 258 278 225 196 219 205 206 234 225 204 195 194 201 208 217 224 226 225 221 218 220 223 226 228 231 231 229 224 220 220 222 223 223 222 220 219 219 221 221 222 222 222 222 223 225 228 232 237 242 242 239 238 241 247 253 253 253 253 257 266
344 15 335 351 330 141 118 74 21 72 120 107 92 101 90 23 17 28 2 54 132 242 257 262 271 129 198 261 243 237 249 204 186 202 201 191 186 188 196 208 217 223 223 220 219 219 218 218 220 221 222 222 220 217 213 213 216 218 219 218 217 215 216 217 217 217 218 218 219 220 221 225 230 235 236 231 223 219 212 210 210 197 186 182 182 284
10 328 307 347 319 245 121 91 35 18 58 89 116 124 108 54 29 48 269 253 203 238 270 282 268 184 226 251 254 259 263 235 212 209 197 184 181 186 194 202 209 214 215 214 214 216 214 213 214 213 213 211 208 206 203 205 209 212 214 215 215 214 214 214 214 215 216 217 218 218 219 220 219 215 201 184 175 171 167 165 163 157 150 133 82 44
19 310 318 4 316 266 156 140 151 200 116 129 145 141 133 125 113 195 236 264 234 247 281 281 268 247 261 268 253 246 253 256 240 218 199 188 186 188 190 193 197 200 203 203 202 203 204 205 206 205 203 200 196 194 193 192 194 199 204 208 209 209 210 211 211 212 211 210 208 203 198 194 184 168 156 152 150 151 151 149 144 134 121 102 88 74
157 251 263 193 237 254 221 171 160 149 145 170 163 136 144 153 149 186 204 190 206 249 287 279 241 189 198 262 257 245 255 227 194 194 189 187 187 185 182 184 188 191 192 194 194 196 198 200 199 196 192 190 187 184 184 183 181 180 183 186 187 186 188 191 192 191 190 186 180 172 165 160 156 153 150 147 146 147 147 143 136 130 128 120 104 77
158 191 276 297 320 180 201 254 130 119 142 227 145 116 155 176 144 144 177 173 162 147 272 231 230 209 201 264 276 297 44 92 131 157 163 169 175 177 179 185 188 190 192 194 196 195 195 195 192 188 183 181 178 174 174 172 168 165 164 164 164 163 163 163 163 163 163 163 160 156 153 151 151 150 149 148 149 149 145 141 139 137 136 123 99 40
159 183 314 341 356 8 312 289 346 125 172 187 121 163 204 160 117 118 176 126 101 137 238 209 244 287 309 278 281 355 14 117 125 145 154 161 169 176 183 187 189 193 194 197 199 197 194 190 185 180 177 174 169 164 162 159 156 153 153 153 153 154 155 153 153 153 154 154 153 153 152 151 151 150 151 153 152 150 146 146 145 143 138 120 92 27
152 127 321 15 76 322 330 330 4 36 116 120 155 199 188 96 87 112 136 21 70 175 262 217 215 267 283 247 289 311 256 243 229 189 167 166 172 179 185 188 190 194 194 196 197 195 192 186 181 176 172 169 164 160 158 154 152 150 150 150 151 152 152 151 151 152 152 153 154 154 154 154 154 154 156 156 154 154 154 154 153 149 146 138 122 89
135 109 307 325 199 279 340 38 110 1 41 133 173 176 124 128 204 133 137 161 156 204 266 273 239 235 205 213 247 240 231 230 224 212 193 184 184 183 184 185 188 191 192 193 193 191 188 183 179 175 170 168 164 161 158 155 153 151 151 152 152 152 152 152 154 154 155 156 157 158 157 157 157 157 158 158 158 159 158 160 161 157 156 146 122 81
133 125 229 284 279 259 2 48 175 221 344 60 76 82 86 135 169 172 162 156 159 193 231 275 308 253 232 212 195 207 219 214 203 203 204 198 192 187 185 184 188 191 191 192 190 188 185 181 178 175 172 170 166 163 160 156 154 153 153 154 155 156 157 157 158 159 159 157 158 160 159 158 159 159 160 162 162 164 164 165 164 160 156 133 96 49
133 120 167 263 335 147 180 218 187 184 181 124 122 160 191 111 129 161 187 138 132 161 192 199 244 264 252 205 190 209 220 210 197 198 202 199 194 191 190 190 191 193 191 190 189 186 183 180 178 177 175 172 168 164 161 159 158 158 158 160 162 163 164 163 161 161 161 159 160 163 163 163 164 164 166 167 166 168 169 168 165 161 151 122 77 22
129 116 141 149 146 178 223 256 210 196 186 158 171 183 184 162 127 149 223 234 119 147 175 166 214 270 257 200 203 223 231 220 204 197 195 197 196 194 194 196 196 194 192 191 189 186 184 182 181 180 177 173 170 167 165 164 164 165 166 167 168 169 168 167 164 163 164 164 164 167 169 169 169 169 170 171 170 172 173 171 170 166 155 139 34 352
105 103 114 123 193 210 254 276 235 224 176 133 192 192 159 146 124 144 200 231 170 169 167 134 177 274 261 223 227 245 259 241 212 201 194 194 195 195 196 198 199 197 195 193 191 189 187 186 185 181 177 174 172 171 170 170 171 173 174 173 173 172 170 169 168 167 169 170 170 172 174 173 173 173 174 175 176 177 177 175 174 171 169 194 310 333
110 99 101 88 325 312 314 312 314 303 121 147 227 184 149 167 142 145 176 172 158 195 159 135 235 269 274 270 269 275 286 254 208 202 196 190 192 195 196 198 199 199 197 196 194 193 190 189 186 182 179 177 176 176 177 178 179 179 179 177 175 175 174 173 172 173 174 176 176 176 177 177 177 177 179 180 181 180 180 180 178 179 200 282 321 334
149 115 118 117 88 1 335 307 290 272 197 198 225 170 132 112 105 119 154 109 139 216 163 156 233 252 271 298 314 319 332 222 199 201 197 190 189 193 196 198 200 199 198 197 196 194 191 189 187 184 182 182 182 183 184 183 183 182 181 180 179 179 178 177 177 178 179 181 182 181 181 181 180 181 183 183 183 184 184 185 187 195 241 309 325 331
150 146 144 135 150 181 200 207 204 192 182 215 209 161 158 146 146 166 166 129 218 233 155 160 225 249 282 316 325 328 353 149 192 194 195 195 194 195 197 199 201 200 199 199 196 194 192 190 188 187 187 188 188 189 188 186 185 184 184 183 182 183 183 181 181 183 183 184 186 185 184 184 183 183 185 186 186 188 188 190 198 215 265 308 324 330
121 174 175 168 181 191 193 193 163 135 148 193 200 188 188 187 176 163 140 170 199 190 177 212 225 242 275 291 280 276 260 218 199 185 190 196 196 198 199 200 201 200 201 200 198 196 194 191 192 192 192 193 192 192 191 190 190 189 188 186 185 186 187 186 185 186 186 187 188 188 186 185 185 185 187 188 188 191 194 200 215 239 285 316 331 336
102 202 194 186 196 193 169 167 160 152 172 194 195 191 191 185 167 159 189 209 170 136 231 242 226 232 249 241 240 245 229 225 222 197 195 198 198 198 198 198 198 199 201 202 201 199 197 195 195 196 196 196 195 194 193 193 193 191 191 191 189 188 189 190 189 188 189 189 188 189 187 186 186 186 187 190 193 198 205 215 239 280 316 331 336 336
119 189 201 189 193 183 133 159 168 168 182 192 189 191 188 177 171 181 209 213 163 164 231 235 219 224 227 218 229 226 202 203 207 202 200 201 200 198 196 196 198 200 203 205 205 204 202 201 200 200 200 199 197 197 196 195 194 192 193 194 192 191 192 192 192 192 191 190 189 189 189 188 187 188 192 196 201 207 218 241 289 321 330 334 334 334
125 179 202 164 164 147 95 165 176 177 185 194 196 196 187 183 188 195 211 215 196 203 230 234 238 246 229 210 231 242 227 215 205 200 202 204 203 199 197 199 201 204 207 208 208 208 206 205 205 204 204 203 201 201 200 198 196 194 194 195 194 194 194 195 195 195 193 191 191 192 191 191 192 194 198 203 209 219 243 287 316 328 328 330 332 332
130 188 203 111 124 295 348 53 146 173 180 193 203 199 186 188 200 207 217 220 208 224 246 252 273 273 237 193 221 247 241 215 195 199 206 208 205 200 198 203 208 210 212 212 211 210 209 208 208 208 208 207 205 204 202 200 198 196 196 196 197 197 197 196 195 194 193 193 194 194 194 195 197 201 205 209 219 236 268 298 309 318 322 327 331 331
102 152 52 82 118 256 342 34 76 82 95 184 219 201 187 188 202 210 216 214 199 215 240 247 256 259 222 169 213 232 208 191 201 207 209 208 206 204 204 209 215 217 217 216 214 214 213 212 211 212 211 210 208 206 204 202 200 199 199 199 199 198 197 196 195 195 195 195 196 196 197 199 201 203 208 214 224 238 259 283 297 313 322 327 331 331
134 133 99 99 142 262 332 15 108 69 59 251 238 201 191 195 202 208 225 228 211 204 216 225 235 242 194 169 218 217 169 196 219 218 215 212 209 210 213 217 223 226 224 222 220 218 217 216 216 215 214 212 211 208 206 205 204 203 202 202 200 199 198 196 195 196 197 196 197 199 200 201 203 204 208 213 222 235 252 280 300 316 325 328 330 331
139 135 136 131 136 259 314 26 75 99 216 242 234 169 180 190 190 197 221 225 215 207 213 228 243 245 157 185 226 215 189 212 228 231 232 228 219 216 218 224 230 233 231 228 227 225 223 221 218 217 216 215 213 210 207 206 206 206 205 203 201 200 200 198 196 197 198 199 200 201 201 202 203 204 209 214 224 240 260 288 309 319 324 326 329 330
147 135 147 145 122 144 27 63 93 224 230 260 330 168 182 187 188 199 219 222 214 213 222 239 255 248 200 211 230 230 225 227 232 236 240 238 232 227 227 229 233 235 234 232 231 230 227 223 221 220 218 217 213 210 207 206 205 205 205 203 202 201 200 199 198 198 200 201 201 201 201 202 203 206 211 219 230 249 275 298 311 319 322 325 328 329
161 153 150 147 140 140 116 146 206 242 276 300 290 222 178 175 182 200 234 250 231 210 216 233 244 241 226 227 236 240 244 242 237 237 237 236 237 236 235 238 239 238 240 240 239 236 232 229 227 225 221 218 213 210 209 206 205 204 204 203 202 202 200 200 200 201 201 201 201 201 201 202 205 210 216 225 240 260 287 301 310 317 320 324 327 328
158 155 150 165 181 162 147 186 236 311 305 269 254 217 165 167 169 174 227 255 228 203 207 219 236 242 234 233 240 244 246 246 245 242 236 231 234 236 238 242 244 245 248 250 247 243 239 236 232 228 224 219 214 211 209 207 204 204 203 202 201 201 201 201 201 202 202 202 201 202 202 204 208 214 221 232 248 270 291 302 309 315 319 322 325 327
146 157 159 173 190 132 124 168 241 276 263 248 217 178 172 177 171 156 191 252 231 202 207 213 230 239 229 227 235 228 210 211 249 248 238 230 228 232 235 237 240 245 249 250 247 243 239 237 234 230 227 221 216 212 209 207 205 204 203 203 202 202 202 202 202 202 202 202 202 203 205 207 212 219 226 238 256 275 290 300 307 313 318 321 324 327
88 106 135 154 172 147 151 186 191 215 248 236 165 166 174 173 156 125 162 263 234 187 204 213 225 233 224 215 212 191 167 195 238 248 245 236 228 231 234 236 239 244 246 248 249 247 244 240 235 230 227 223 219 214 209 207 207 206 205 204 203 203 203 203 203 203 202 203 203 205 207 211 216 223 230 244 262 277 288 298 306 312 316 320 323 326
77 74 121 165 187 175 177 202 208 231 251 220 183 187 174 162 142 116 204 263 205 177 201 208 213 225 225 214 200 174 176 215 233 247 247 238 231 234 239 242 244 246 247 248 249 248 245 241 236 231 229 226 222 216 210 207 207 206 206 205 205 204 204 204 203 202 202 203 205 207 210 214 219 227 236 251 265 277 289 299 306 311 315 319 323 325
91 91 149 177 190 179 179 207 248 264 243 221 217 188 162 147 134 155 217 235 179 184 204 206 211 225 226 207 192 192 213 223 230 242 231 217 223 230 237 243 246 249 251 250 250 248 243 240 238 236 234 229 223 216 211 208 207 206 206 206 205 205 204 203 202 202 203 205 206 209 213 216 222 230 240 255 269 281 291 298 304 309 314 318 321 321
149 141 150 168 174 169 167 184 247 270 242 177 147 162 158 148 170 215 191 138 159 187 201 203 215 228 227 212 210 217 224 226 226 224 212 211 223 228 236 244 246 249 250 247 245 244 240 236 233 231 229 225 220 216 212 209 207 206 205 205 205 204 203 202 202 203 204 206 208 211 215 219 225 233 243 258 272 282 291 297 303 309 314 317 318 319
163 152 175 193 173 153 147 167 206 268 224 139 126 141 175 178 223 192 158 133 152 171 170 168 181 202 216 220 223 226 228 227 226 226 224 226 233 237 241 243 243 248 250 247 242 239 236 233 230 226 224 220 216 213 211 208 207 205 205 205 204 203 203 202 202 204 204 207 210 213 216 221 228 237 248 260 270 279 290 297 303 309 312 315 316 317
176 164 180 212 184 149 169 195 205 236 173 150 135 160 197 197 215 153 157 150 137 136 138 132 121 126 165 192 208 217 219 219 222 226 228 232 238 243 246 248 247 247 247 245 241 237 233 231 228 224 220 216 213 211 208 207 206 205 204 204 203 202 203 202 203 204 206 209 212 214 218 224 232 242 252 261 270 279 288 295 301 306 310 313 315 316
206 192 172 185 188 169 187 211 217 189 166 161 65 73 175 182 176 141 154 146 131 126 119 110 104 100 101 111 144 182 200 211 219 227 233 240 247 251 252 253 250 247 245 241 238 234 231 230 228 224 220 215 211 209 206 205 206 206 205 205 204 204 204 203 204 206 207 210 213 215 221 228 235 245 254 261 270 278 284 291 299 305 309 312 314 315
216 191 153 145 196 215 228 220 204 164 164 154 65 104 157 161 139 130 134 128 121 117 107 101 96 86 83 89 108 132 166 197 211 227 239 243 246 247 248 247 244 243 241 238 235 232 228 227 225 223 220 216 211 207 205 204 205 207 208 206 205 205 204 204 206 207 208 211 215 218 224 231 238 247 255 261 268 276 284 293 300 305 308 311 313 316
261 180 157 150 179 195 230 230 182 168 174 157 112 124 142 138 131 128 119 116 115 108 106 105 93 83 83 74 68 91 164 206 221 242 248 249 251 250 249 250 248 244 241 239 237 236 232 228 225 223 221 217 213 208 205 204 204 204 207 208 207 205 205 206 207 209 211 214 217 221 226 233 241 248 254 260 268 278 287 295 301 304 307 310 314 318
194 168 177 198 181 182 235 231 114 117 136 136 123 134 136 130 136 130 114 120 124 113 114 114 103 106 114 101 123 252 275 270 267 270 268 265 263 259 256 254 249 245 242 239 238 237 235 232 229 225 222 219 215 210 207 206 204 203 205 207 208 207 206 207 208 211 215 216 219 223 228 235 241 247 252 259 267 277 285 293 300 304 308 313 317 319
147 163 179 177 174 173 345 137 114 93 84 91 106 125 135 135 145 140 126 130 133 123 117 105 96 105 112 122 218 229 251 259 265 272 269 266 265 262 258 255 249 246 245 242 241 239 236 234 231 228 223 220 216 212 209 207 205 204 203 205 208 208 208 210 212 214 216 218 221 226 230 236 240 244 251 259 267 275 284 293 301 305 310 314 317 321
136 169 179 150 176 209 216 183 158 121 96 100 99 104 114 121 125 124 113 105 103 95 83 75 78 82 75 33 283 268 265 266 273 273 269 269 268 263 259 256 251 248 246 243 241 238 234 232 231 227 223 220 217 214 211 209 207 206 205 206 208 209 211 213 214 216 218 220 224 228 232 237 241 246 252 259 267 276 288 297 301 305 309 313 317 322
161 201 187 156 171 205 193 172 148 122 114 115 102 99 101 104 107 105 96 88 86 83 76 71 70 67 58 36 351 325 298 285 281 273 268 268 266 261 259 256 252 252 250 246 242 238 234 230 227 224 222 220 217 215 214 211 209 207 207 208 210 211 213 215 216 218 221 223 226 230 234 238 244 249 255 261 269 278 286 292 296 301 307 312 318 323